SPNFL EPKK-EPDE

Flight info

Callsign SPNFL
Flight time 0h 58m
Altitude 9000
Route POBOK DCT LODBO/N0174F080
Aircraft DA42/L-SBDGRY/S

Departure

Time 2026-04-21 19:41
Airport Kraków John Paul II International Airport (EPKK)

Arrival

Time 2026-04-21 20:39
Airport Deblin Military Air Base (EPDE)
Time Latitude Longitude Altitude Speed Heading
2026-04-21 19:20 50.07700 19.80162 794 ft 0 kts 347°
2026-04-21 19:35 50.07711 19.80158 794 ft 9 kts 347°
2026-04-21 19:36 50.07761 19.80209 794 ft 12 kts 72°
2026-04-21 19:36 50.07781 19.80332 795 ft 12 kts 46°
2026-04-21 19:36 50.07851 19.80334 793 ft 2 kts 347°
2026-04-21 19:40 50.07918 19.80311 788 ft 22 kts 347°
2026-04-21 19:40 50.08008 19.80265 789 ft 9 kts 319°
2026-04-21 19:40 50.08009 19.80170 789 ft 16 kts 257°
2026-04-21 19:40 50.07943 19.79714 790 ft 73 kts 258°
2026-04-21 19:41 50.07803 19.78788 970 ft 94 kts 258°
2026-04-21 19:41 50.07623 19.77779 1331 ft 97 kts 257°
2026-04-21 19:41 50.07479 19.76775 1727 ft 94 kts 262°
2026-04-21 19:41 50.07360 19.75740 2034 ft 100 kts 263°
2026-04-21 19:42 50.07268 19.75043 2271 ft 99 kts 264°
2026-04-21 19:42 50.07083 19.73646 2719 ft 100 kts 264°
2026-04-21 19:42 50.06938 19.72578 3068 ft 102 kts 265°
2026-04-21 19:42 50.06791 19.71497 3405 ft 102 kts 264°
2026-04-21 19:43 50.06792 19.70784 3631 ft 96 kts 294°
2026-04-21 19:43 50.07176 19.70024 3982 ft 88 kts 335°
2026-04-21 19:43 50.07748 19.69748 4293 ft 86 kts 359°
2026-04-21 19:43 50.08347 19.69666 4618 ft 87 kts 358°
2026-04-21 19:44 50.08949 19.69570 4984 ft 87 kts 358°
2026-04-21 19:44 50.09556 19.69461 5319 ft 88 kts 357°
2026-04-21 19:44 50.10165 19.69345 5666 ft 88 kts 357°
2026-04-21 19:44 50.10768 19.69225 6025 ft 89 kts 357°
2026-04-21 19:45 50.11381 19.69100 6394 ft 89 kts 357°
2026-04-21 19:45 50.11995 19.68973 6738 ft 89 kts 357°
2026-04-21 19:45 50.12610 19.68844 7084 ft 89 kts 357°
2026-04-21 19:45 50.13226 19.68715 7392 ft 90 kts 357°
2026-04-21 19:46 50.13849 19.68584 7717 ft 91 kts 357°
2026-04-21 19:46 50.14481 19.68451 8035 ft 92 kts 357°
2026-04-21 19:46 50.15113 19.68318 8361 ft 93 kts 357°
2026-04-21 19:46 50.15759 19.68182 8705 ft 94 kts 357°
2026-04-21 19:47 50.16413 19.68044 9047 ft 95 kts 357°
2026-04-21 19:47 50.17075 19.67904 9409 ft 96 kts 357°
2026-04-21 19:47 50.17745 19.67763 9768 ft 98 kts 357°
2026-04-21 19:47 50.18421 19.67668 10097 ft 97 kts
2026-04-21 19:48 50.19102 19.68076 10166 ft 118 kts 39°
2026-04-21 19:48 50.19788 19.68987 10164 ft 138 kts 41°
2026-04-21 19:48 50.20510 19.69977 10381 ft 138 kts 41°
2026-04-21 19:48 50.21223 19.70950 10650 ft 138 kts 41°
2026-04-21 19:49 50.21948 19.71936 10908 ft 138 kts 41°
2026-04-21 19:49 50.22672 19.72922 11157 ft 140 kts 41°
2026-04-21 19:49 50.23436 19.73960 11153 ft 149 kts 41°
2026-04-21 19:49 50.24231 19.75042 11155 ft 154 kts 41°
2026-04-21 19:50 50.25044 19.76148 11154 ft 156 kts 41°
2026-04-21 19:50 50.25866 19.77269 11152 ft 157 kts 41°
2026-04-21 19:50 50.26692 19.78394 11152 ft 158 kts 41°
2026-04-21 19:50 50.27522 19.79526 11152 ft 158 kts 41°
2026-04-21 19:51 50.28350 19.80656 11151 ft 158 kts 41°
2026-04-21 19:51 50.29177 19.81785 11152 ft 157 kts 41°
2026-04-21 19:51 50.30002 19.82914 11153 ft 157 kts 41°
2026-04-21 19:51 50.30813 19.84021 11152 ft 157 kts 41°
2026-04-21 19:52 50.31634 19.85142 11150 ft 157 kts 41°
2026-04-21 19:52 50.32454 19.86263 11151 ft 156 kts 41°
2026-04-21 19:52 50.33276 19.87386 11151 ft 157 kts 41°
2026-04-21 19:52 50.34096 19.88507 11151 ft 157 kts 41°
2026-04-21 19:53 50.34918 19.89633 11153 ft 157 kts 41°
2026-04-21 19:53 50.35741 19.90761 11152 ft 157 kts 41°
2026-04-21 19:53 50.36565 19.91889 11152 ft 157 kts 41°
2026-04-21 19:53 50.37388 19.93018 11150 ft 157 kts 41°
2026-04-21 19:54 50.38201 19.94132 11149 ft 157 kts 41°
2026-04-21 19:54 50.39020 19.95257 11149 ft 157 kts 41°
2026-04-21 19:54 50.39840 19.96384 11147 ft 157 kts 41°
2026-04-21 19:54 50.40660 19.97511 11147 ft 156 kts 41°
2026-04-21 19:55 50.41476 19.98632 11147 ft 156 kts 41°
2026-04-21 19:55 50.42292 19.99755 11145 ft 156 kts 41°
2026-04-21 19:55 50.43104 20.00873 11145 ft 155 kts 41°
2026-04-21 19:55 50.43915 20.01989 11145 ft 155 kts 41°
2026-04-21 19:56 50.44724 20.03103 11143 ft 155 kts 41°
2026-04-21 19:56 50.45533 20.04218 11142 ft 155 kts 41°
2026-04-21 19:56 50.46342 20.05332 11140 ft 154 kts 41°
2026-04-21 19:56 50.47146 20.06441 11140 ft 154 kts 41°
2026-04-21 19:57 50.47940 20.07536 11143 ft 153 kts 41°
2026-04-21 19:57 50.48740 20.08641 11144 ft 153 kts 41°
2026-04-21 19:57 50.49541 20.09747 11144 ft 153 kts 41°
2026-04-21 19:57 50.50341 20.10853 11145 ft 153 kts 41°
2026-04-21 19:58 50.51137 20.11953 11145 ft 152 kts 41°
2026-04-21 19:58 50.51935 20.13055 11143 ft 152 kts 41°
2026-04-21 19:58 50.52727 20.14152 11138 ft 152 kts 41°
2026-04-21 19:58 50.53506 20.15232 11138 ft 151 kts 41°
2026-04-21 19:59 50.54298 20.16329 11137 ft 151 kts 41°
2026-04-21 19:59 50.55082 20.17416 11139 ft 150 kts 41°
2026-04-21 19:59 50.55870 20.18507 11139 ft 150 kts 41°
2026-04-21 19:59 50.56647 20.19585 11140 ft 150 kts 41°
2026-04-21 20:00 50.57433 20.20675 11140 ft 150 kts 41°
2026-04-21 20:00 50.58183 20.21818 11139 ft 150 kts 51°
2026-04-21 20:00 50.58696 20.23246 11143 ft 151 kts 63°
2026-04-21 20:00 50.59129 20.24750 11143 ft 150 kts 63°
2026-04-21 20:01 50.59557 20.26253 11144 ft 150 kts 63°
2026-04-21 20:01 50.59985 20.27754 11142 ft 150 kts 63°
2026-04-21 20:01 50.60414 20.29257 11143 ft 151 kts 63°
2026-04-21 20:01 50.60843 20.30761 11142 ft 151 kts 63°
2026-04-21 20:02 50.61273 20.32265 11142 ft 151 kts 63°
2026-04-21 20:02 50.61698 20.33754 11142 ft 151 kts 63°
2026-04-21 20:02 50.62128 20.35264 11137 ft 151 kts 63°
2026-04-21 20:02 50.62558 20.36774 11138 ft 151 kts 63°
2026-04-21 20:03 50.62987 20.38284 11137 ft 151 kts 63°
2026-04-21 20:03 50.63418 20.39797 11137 ft 151 kts 63°
2026-04-21 20:03 50.63850 20.41315 11138 ft 152 kts 63°
2026-04-21 20:03 50.64282 20.42837 11138 ft 152 kts 63°
2026-04-21 20:04 50.64710 20.44344 11137 ft 152 kts 64°
2026-04-21 20:04 50.65141 20.45869 11138 ft 152 kts 64°
2026-04-21 20:04 50.65573 20.47394 11142 ft 153 kts 63°
2026-04-21 20:04 50.66007 20.48922 11141 ft 152 kts 63°
2026-04-21 20:05 50.66439 20.50445 11141 ft 152 kts 63°
2026-04-21 20:05 50.66870 20.51969 11142 ft 152 kts 63°
2026-04-21 20:05 50.67303 20.53498 11142 ft 153 kts 63°
2026-04-21 20:05 50.67736 20.55030 11142 ft 153 kts 63°
2026-04-21 20:06 50.68169 20.56563 11142 ft 153 kts 63°
2026-04-21 20:06 50.68603 20.58102 11139 ft 154 kts 63°
2026-04-21 20:06 50.69038 20.59645 11136 ft 154 kts 63°
2026-04-21 20:06 50.69472 20.61183 11136 ft 154 kts 63°
2026-04-21 20:07 50.69906 20.62725 11140 ft 154 kts 63°
2026-04-21 20:07 50.70335 20.64249 11139 ft 154 kts 63°
2026-04-21 20:07 50.70771 20.65798 11139 ft 154 kts 63°
2026-04-21 20:07 50.71207 20.67348 11139 ft 155 kts 63°
2026-04-21 20:08 50.71643 20.68903 11137 ft 155 kts 63°
2026-04-21 20:08 50.72080 20.70456 11138 ft 155 kts 63°
2026-04-21 20:08 50.72519 20.72022 11139 ft 156 kts 63°
2026-04-21 20:08 50.72959 20.73589 11138 ft 157 kts 63°
2026-04-21 20:09 50.73401 20.75165 11136 ft 157 kts 63°
2026-04-21 20:09 50.73842 20.76740 11137 ft 157 kts 63°
2026-04-21 20:09 50.74283 20.78317 11137 ft 157 kts 63°
2026-04-21 20:09 50.74723 20.79893 11136 ft 157 kts 63°
2026-04-21 20:10 50.75164 20.81469 11139 ft 157 kts 63°
2026-04-21 20:10 50.75606 20.83049 11140 ft 157 kts 63°
2026-04-21 20:10 50.76048 20.84633 11138 ft 157 kts 63°
2026-04-21 20:10 50.76489 20.86215 11130 ft 157 kts 63°
2026-04-21 20:11 50.76930 20.87797 11129 ft 157 kts 63°
2026-04-21 20:11 50.77365 20.89360 11130 ft 157 kts 63°
2026-04-21 20:11 50.77807 20.90947 11134 ft 158 kts 63°
2026-04-21 20:11 50.78250 20.92539 11133 ft 158 kts 63°
2026-04-21 20:12 50.78692 20.94130 11135 ft 158 kts 63°
2026-04-21 20:12 50.79134 20.95723 11133 ft 158 kts 63°
2026-04-21 20:12 50.79428 20.96779 11133 ft 158 kts 63°
2026-04-21 20:12 50.80021 20.98915 11133 ft 158 kts 63°
2026-04-21 20:13 50.80463 21.00513 11135 ft 158 kts 63°
2026-04-21 20:13 50.80905 21.02108 11135 ft 158 kts 63°
2026-04-21 20:13 50.81341 21.03681 11135 ft 158 kts 63°
2026-04-21 20:13 50.81781 21.05272 11137 ft 158 kts 63°
2026-04-21 20:14 50.82222 21.06870 11134 ft 158 kts 64°
2026-04-21 20:14 50.82664 21.08469 11132 ft 159 kts 64°
2026-04-21 20:14 50.83105 21.10066 11135 ft 158 kts 64°
2026-04-21 20:14 50.83547 21.11668 11132 ft 159 kts 63°
2026-04-21 20:15 50.83989 21.13272 11134 ft 159 kts 63°
2026-04-21 20:15 50.84432 21.14876 11134 ft 158 kts 63°
2026-04-21 20:15 50.84866 21.16453 11135 ft 158 kts 63°
2026-04-21 20:15 50.85305 21.18052 11135 ft 158 kts 63°
2026-04-21 20:16 50.85746 21.19654 11134 ft 158 kts 63°
2026-04-21 20:16 50.86186 21.21255 11134 ft 158 kts 63°
2026-04-21 20:16 50.86625 21.22854 11134 ft 158 kts 63°
2026-04-21 20:16 50.87063 21.24449 11134 ft 158 kts 63°
2026-04-21 20:17 50.87501 21.26048 11132 ft 158 kts 63°
2026-04-21 20:17 50.87939 21.27646 11133 ft 158 kts 63°
2026-04-21 20:17 50.88377 21.29246 11132 ft 158 kts 63°
2026-04-21 20:17 50.88808 21.30821 11131 ft 158 kts 63°
2026-04-21 20:18 50.89104 21.31904 11135 ft 158 kts 63°
2026-04-21 20:18 50.89683 21.34023 11136 ft 158 kts 63°
2026-04-21 20:18 50.90119 21.35622 11136 ft 158 kts 64°
2026-04-21 20:18 50.90554 21.37216 11136 ft 157 kts 64°
2026-04-21 20:19 50.90987 21.38807 11134 ft 157 kts 64°
2026-04-21 20:19 50.91422 21.40401 11134 ft 157 kts 64°
2026-04-21 20:19 50.91851 21.41977 11133 ft 157 kts 64°
2026-04-21 20:19 50.92438 21.43412 11131 ft 155 kts 46°
2026-04-21 20:20 50.93204 21.44617 11131 ft 155 kts 43°
2026-04-21 20:20 50.93988 21.45794 11132 ft 155 kts 43°
2026-04-21 20:20 50.94772 21.46964 11132 ft 155 kts 43°
2026-04-21 20:20 50.95556 21.48134 11132 ft 155 kts 43°
2026-04-21 20:21 50.96340 21.49304 11137 ft 155 kts 43°
2026-04-21 20:21 50.97125 21.50476 11137 ft 155 kts 43°
2026-04-21 20:21 50.97911 21.51649 11137 ft 155 kts 43°
2026-04-21 20:21 50.98697 21.52822 11137 ft 155 kts 43°
2026-04-21 20:22 50.99486 21.53999 11133 ft 155 kts 43°
2026-04-21 20:22 51.01037 21.56339 11134 ft 155 kts 43°
2026-04-21 20:22 51.01815 21.57513 11133 ft 154 kts 43°
2026-04-21 20:23 51.02590 21.58686 11136 ft 154 kts 43°
2026-04-21 20:23 51.03367 21.59864 11137 ft 154 kts 43°
2026-04-21 20:23 51.04142 21.61040 11136 ft 154 kts 43°
2026-04-21 20:23 51.04918 21.62215 11136 ft 154 kts 43°
2026-04-21 20:24 51.05692 21.63388 11134 ft 154 kts 43°
2026-04-21 20:24 51.06471 21.64569 11070 ft 158 kts 43°
2026-04-21 20:24 51.07277 21.65793 10892 ft 162 kts 43°
2026-04-21 20:24 51.08094 21.67037 10715 ft 164 kts 43°
2026-04-21 20:25 51.08920 21.68292 10536 ft 165 kts 43°
2026-04-21 20:25 51.09749 21.69551 10363 ft 165 kts 43°
2026-04-21 20:25 51.10580 21.70813 10187 ft 165 kts 43°
2026-04-21 20:25 51.11412 21.72077 10013 ft 165 kts 43°
2026-04-21 20:26 51.12235 21.73328 9827 ft 165 kts 43°
2026-04-21 20:26 51.13069 21.74602 9588 ft 167 kts 43°
2026-04-21 20:26 51.13909 21.75888 9342 ft 168 kts 43°
2026-04-21 20:26 51.14752 21.77181 9098 ft 168 kts 43°
2026-04-21 20:27 51.15598 21.78481 8849 ft 169 kts 43°
2026-04-21 20:27 51.16444 21.79786 8610 ft 169 kts 43°
2026-04-21 20:27 51.17288 21.81095 8373 ft 169 kts 43°
2026-04-21 20:27 51.18128 21.82400 8137 ft 169 kts 43°
2026-04-21 20:28 51.18968 21.83708 7906 ft 168 kts 43°
2026-04-21 20:28 51.19794 21.84999 7674 ft 168 kts 43°
2026-04-21 20:28 51.20631 21.86307 7444 ft 168 kts 43°
2026-04-21 20:28 51.21463 21.87609 7215 ft 168 kts 43°
2026-04-21 20:29 51.22017 21.88474 7066 ft 168 kts 43°
2026-04-21 20:29 51.22851 21.89778 6838 ft 168 kts 43°
2026-04-21 20:29 51.23684 21.91080 6610 ft 168 kts 43°
2026-04-21 20:29 51.24516 21.92381 6378 ft 167 kts 43°
2026-04-21 20:30 51.25381 21.93623 6130 ft 167 kts 32°
2026-04-21 20:30 51.26408 21.94497 5887 ft 166 kts 25°
2026-04-21 20:30 51.27442 21.95281 5660 ft 166 kts 25°
2026-04-21 20:30 51.28485 21.96064 5425 ft 166 kts 25°
2026-04-21 20:31 51.29530 21.96846 5193 ft 165 kts 25°
2026-04-21 20:31 51.30571 21.97625 4960 ft 165 kts 25°
2026-04-21 20:31 51.31607 21.98403 4725 ft 164 kts 25°
2026-04-21 20:31 51.32641 21.99180 4480 ft 164 kts 25°
2026-04-21 20:32 51.33674 21.99955 4250 ft 164 kts 25°
2026-04-21 20:32 51.34707 22.00731 4014 ft 163 kts 25°
2026-04-21 20:32 51.35734 22.01505 3782 ft 163 kts 25°
2026-04-21 20:32 51.36758 22.02279 3551 ft 163 kts 25°
2026-04-21 20:33 51.37781 22.03049 3317 ft 162 kts 25°
2026-04-21 20:33 51.38799 22.03816 3135 ft 159 kts 25°
2026-04-21 20:33 51.39768 22.04549 3139 ft 150 kts 25°
2026-04-21 20:33 51.40687 22.05241 3140 ft 146 kts 25°
2026-04-21 20:34 51.41595 22.05927 3144 ft 143 kts 25°
2026-04-21 20:34 51.42523 22.06473 3145 ft 142 kts 15°
2026-04-21 20:34 51.43482 22.06851 3146 ft 142 kts 14°
2026-04-21 20:34 51.44440 22.07213 3146 ft 141 kts 14°
2026-04-21 20:35 51.45398 22.07574 3132 ft 142 kts 14°
2026-04-21 20:35 51.46369 22.07939 3078 ft 144 kts 14°
2026-04-21 20:35 51.47359 22.08312 2998 ft 147 kts 14°
2026-04-21 20:35 51.48374 22.08260 2888 ft 152 kts 340°
2026-04-21 20:36 51.49164 22.07084 2734 ft 161 kts 312°
2026-04-21 20:36 51.49904 22.05756 2527 ft 168 kts 295°
2026-04-21 20:36 51.49968 22.03839 2323 ft 170 kts 274°
2026-04-21 20:36 51.50345 22.02160 2097 ft 162 kts 310°
2026-04-21 20:37 51.50918 22.00579 1864 ft 164 kts 304°
2026-04-21 20:37 51.51455 21.99056 1644 ft 152 kts 304°
2026-04-21 20:37 51.51980 21.97636 1435 ft 144 kts 305°
2026-04-21 20:37 51.52482 21.96285 1231 ft 138 kts 303°
2026-04-21 20:38 51.52965 21.94977 1038 ft 133 kts 302°
2026-04-21 20:38 51.53430 21.93743 856 ft 126 kts 303°
2026-04-21 20:38 51.53848 21.92613 703 ft 108 kts 303°
2026-04-21 20:38 51.54180 21.91695 573 ft 86 kts 306°
2026-04-21 20:39 51.54490 21.90877 466 ft 87 kts 303°
2026-04-21 20:39 51.54781 21.90101 394 ft 64 kts 303°
2026-04-21 20:39 51.54926 21.89712 391 ft 12 kts 285°
2026-04-21 20:39 51.54866 21.89635 393 ft 11 kts 210°
2026-04-21 20:40 51.54799 21.89571 393 ft 12 kts 213°
2026-04-21 20:40 51.54728 21.89502 393 ft 12 kts 209°
2026-04-21 20:40 51.54668 21.89448 393 ft 9 kts 201°
2026-04-21 20:40 51.54623 21.89510 393 ft 10 kts 117°
2026-04-21 20:41 51.54610 21.89573 392 ft 9 kts 39°
2026-04-21 20:41 51.54626 21.89592 394 ft 0 kts 33°